Regional Weather Roundup
Issued by NWS

Home | Current Version | Previous Version | Graphics & Text | Print | Product List | Glossary On
Versions: 1 2 3 4 5 6 7 8 9 10 11 12 13 14 15 16 17 18 19 20 21 22 23 24 25 26 27
000
ASUS45 KTFX 231010
RWRMT
MONTANA REGIONAL WEATHER ROUNDUP
NATIONAL WEATHER SERVICE GREAT FALLS MT
400 AM MDT MON APR 23 2018

NOTE: "FAIR" INDICATES FEW OR NO CLOUDS BELOW 12000 FEET WITH NO
SIGNIFICANT WEATHER AND/OR OBSTRUCTIONS TO VISIBILITY.

MTZ001>007-043-231100-
WEST OF THE DIVIDE

CITY           SKY/WX    TMP DP  RH WIND       PRES   REMARKS
KALISPELL      CLOUDY    44  25  47 N12       30.25R
MISSOULA       FAIR      35  23  61 CALM      30.22R
BUTTE          LGT SNOW  35  29  78 N13       30.17R WCI  26
MULLAN PASS    MOCLDY    31  16  54 N7        30.20R WCI  24
ANACONDA         N/A     37  27  65 NW9       30.19R WCI  31
DEER LODGE       N/A     39  25  56 NE13      30.23R WCI  32
HAMILTON         N/A     39  23  52 MISG      30.18R
PLAINS           N/A     31  23  72 CALM      30.24R
RONAN            N/A     32  27  80 NE5       30.24R
$$

MTZ008-052>055-231100-
SOUTHWEST MONTANA

CITY           SKY/WX    TMP DP  RH WIND       PRES   REMARKS
BOZEMAN        LGT RAIN  36  34  92 S8        30.16R WCI  30
DILLON         CLOUDY    36  34  92 NE16G25   30.12R WCI  26
ENNIS          LGT SNOW  34  32  93 N18       30.15S WCI  23
W YELLOWSTONE  LGT SNOW  32  32 100 S5        30.08F VSB 1
THREE FORKS      N/A     40  37  89 N3        30.14R
TWIN BRIDGES     N/A     39  30  70 N21       30.08R WCI  29
$$

MTZ009-010-012-014-046-048-049-054-231100-
EAST SLOPES AND CENTRAL MONTANA

CITY           SKY/WX    TMP DP  RH WIND       PRES   REMARKS
CUT BANK       FAIR      31  23  72 NW10      30.30S WCI  22
GREAT FALLS    CLOUDY    38  25  59 N8        30.26R
HELENA         LGT RAIN  40  35  83 N6        30.23R
AUGUSTA        CLOUDY    36  22  58 CALM      30.28R
CHOTEAU          N/A     36  21  55 N13       30.29S WCI  27
CONRAD           N/A     36  27  70 W9        30.28  WCI  29
WHITE SULPHUR  FOG       32  32 100 NW12      30.17F VSB 1/2 WCI  23
$$

MTZ011-013-016-021-045-047-050-051-231100-
NORTH CENTRAL MONTANA

CITY           SKY/WX    TMP DP  RH WIND       PRES   REMARKS
HAVRE          FAIR      36  30  79 N3        30.29R
LEWISTOWN      LGT RAIN  35  35 100 SE7       30.24R WCI  29
N BAR RANCH    LGT SNOW  34  32  93 W8        30.23S WCI  27
CHINOOK          N/A     37  34  87 W5        30.29S
$$

MTZ017>020-022>027-061-062-231100-
NORTHEAST MONTANA

CITY           SKY/WX    TMP DP  RH WIND       PRES   REMARKS
GLASGOW        FAIR      44  31  60 SE6       30.25R
GLENDIVE       CLOUDY    48  26  42 NE12      30.21R
JORDAN           N/A     47  28  47 N8        30.24R
MALTA          CLEAR     43  32  65 N7        30.26R
WOLF POINT     CLOUDY    46  30  53 E5        30.25R
PLENTYWOOD       N/A     37  32  81 CALM      30.24R
POPLAR           N/A     43  28  56 CALM      30.26R
SCOBEY           N/A     33  22  64 CALM      30.21R
$$

MTZ028>42-056>058-231100-
SOUTHCENTRAL AND SOUTHEAST MONTANA

CITY           SKY/WX    TMP DP  RH WIND       PRES   REMARKS
BAKER          FAIR      45  32  60 E3        30.14R
BILLINGS       CLOUDY    46  34  62 N20G28    30.11R
LIVINGSTON     LGT RAIN  36  32  85 E15       30.16S WCI  27
MILES CITY     CLOUDY    49  33  54 N14       30.15R
BIG TIMBER     CLOUDY    37  36  93 VRB7G13   30.22R FOG
EKALAKA          N/A     45  31  58 NE5       30.07R
FORSYTH          N/A     52  30  43 NE9       30.14S
LAUREL           N/A     46  34  61 N18       30.13R
$$

REGIONAL REPORTS...DAKOTAS

CITY           SKY/WX    TMP DP  RH WIND       PRES   REMARKS
WILLISTON      FAIR      35  30  82 NE6       30.22R WCI  30
MINOT          FAIR      39  29  67 W8        30.18R
DICKINSON      FAIR      42  30  62 N13       30.14R
BEACH          CLOUDY    43  27  52 NE10      30.20S
CROSBY         MOCLDY    36  32  87 NW8       30.23R WCI  29
TIOGA          MOCLDY    37  28  70 NE5       30.22R
BISMARCK       FAIR      37  35  92 SE8       30.14R WCI  31
GRAND FORKS    FAIR      36  36 100 VRB3      30.13R
FARGO          MOCLDY    42  37  82 S7        30.17R
BUFFALO SD       N/A     44  34  67 NE12      30.03S
RAPID CITY     FAIR      40  36  86 CALM      30.06F
$$

REGIONAL REPORTS...WYOMING/IDAHO/WASHINGTON

CITY           SKY/WX    TMP DP  RH WIND       PRES   REMARKS
GILLETTE       FAIR      43  36  76 S6        30.03S
SHERIDAN       FAIR      47  34  60 W9        30.04R
BUFFALO WY     FAIR      45  36  70 NW12      30.04R
CODY           CLOUDY    44  28  53 NW17G23   30.08R
YELLOWSTONE LA   N/A     34  31  88 NW3       30.09F
IDAHO FALLS    CLOUDY    43  40  89 SE9       30.05F
SALMON         CLOUDY    48  28  46 N12G20    30.10R
BOISE          FAIR      41  26  55 NW10      30.13R
SPOKANE        FAIR      42  21  43 CALM      30.26S
$$

REGIONAL REPORTS...ALBERTA

CITY           SKY/WX    TMP DP  RH WIND       PRES   REMARKS
CALGARY        MOCLDY    36  23  60 N5        30.34R
CARDSTON         N/A     30  25  80 SE2         N/A
EDMONTON       CLEAR     30  16  55 W7        30.31R WCI  23
FORT MCMURRAY  CLEAR     28  27  93 W5        30.24R
HIGH LEVEL     CLEAR     25  23  93 CALM      30.21R
LETHBRIDGE     MOCLDY    27  21  80 SW2       30.34R
LLOYDMINSTER   CLEAR     28  25  86 W13       30.26R WCI  18
MEDICINE HAT   CLEAR     30  27  86 SW3       30.34R
MILK RIVER       N/A     32  27  80 N12         N/A  WCI  23
ONEFOUR          N/A     30  27  86 N7          N/A  WCI  23
PEACE RIVER    PTCLDY    34  21  60 W10       30.25R WCI  26
PINCHER CREEK  CLOUDY    27  23  86 W6        30.34R WCI  20
WATERTON GATE    N/A     28  23  80 NE2         N/A
$$

REGIONAL REPORTS...SASKATCHEWAN

CITY           SKY/WX    TMP DP  RH WIND       PRES   REMARKS
CORONACH         N/A     34  30  86 NW6         N/A  WCI  29
ESTEVAN        PTCLDY    28  25  86 W7        30.22R WCI  21
MOOSE JAW        N/A     34  30  86 W10         N/A  WCI  26
PRINCE ALBERT  PTCLDY    36  32  87 W10       30.17R WCI  28
REGINA         CLEAR     28  28 100 W6        30.22R WCI  22
ROCKGLEN         N/A     36  30  80 NW3         N/A
SASKATOON      CLEAR     36  30  80 W13       30.23R WCI  27
SWIFT CURRENT  CLOUDY    32  28  86 SW7       30.27R WCI  26
VAL MARIE        N/A     34  28  80 N8          N/A  WCI  27
$$




USA.gov is the U.S. government's official web portal to all federal, state and local government web resources and services.